Regional Weather Roundup
Issued by NWS

Home | Current Version | Previous Version | Graphics & Text | Print | Product List | Glossary Off
Versions: 1 2 3 4 5 6 7 8 9 10 11 12 13 14 15 16 17 18 19 20 21 22 23 24 25 26 27 28 29 30 31 32 33 34 35 36 37 38 39 40 41 42 43 44 45 46 47 48 49 50

000
ASUS43 KTOP 271808
RWRKS

WEATHER ROUNDUP FOR KANSAS
NATIONAL WEATHER SERVICE GOODLAND KS
100 PM CDT THU AUG 27 2015

NOTE:  "FAIR" INDICATES FEW OR NO CLOUDS BELOW 12,000 FEET WITH NO
SIGNIFICANT WEATHER AND/OR OBSTRUCTIONS TO VISIBILITY.

KSZ001>006-013>018-027>032-041>047-271900-
NORTHWEST KANSAS

CITY           SKY/WX    TMP DP  RH WIND       PRES   REMARKS
GOODLAND       MOSUNNY   89  51  27 NW22G28   29.97F
6HR MIN TEMP:  69; 6HR MAX TEMP:  91;

HAYS             N/A    N/A N/A N/A MISG        N/A
HILL CITY      CLOUDY    95  55  26 SW18G26   29.88F
6HR MIN TEMP:  69; 6HR MAX TEMP:  98;

RUSSELL        CLOUDY    95  60  31 S20       29.91F HX  95
6HR MIN TEMP:  69; 6HR MAX TEMP:  97;

$$

KSZ061>065-074>080-084>089-271900-
SOUTHWEST KANSAS

CITY           SKY/WX    TMP DP  RH WIND       PRES   REMARKS
DODGE CITY     PTSUNNY   91  57  31 S21       29.98F
6HR MIN TEMP:  66; 6HR MAX TEMP:  94;

ELKHART          N/A     88  60  38 S13         N/A
GARDEN CITY    PTSUNNY   95  57  27 SW26G35   29.96F
6HR MIN TEMP:  70; 6HR MAX TEMP:  95;

GREAT BEND     PTSUNNY   97  63  32 S20G26    29.93F HX  98
LIBERAL        MOSUNNY   93  59  31 SW17G26   30.02F
$$

KSZ066>073-081>083-090>101-271900-
SOUTHEAST KANSAS

CITY           SKY/WX    TMP DP  RH WIND       PRES   REMARKS
CHANUTE        RAIN      70  65  84 S13G24    30.08F
6HR MIN TEMP:  66; 6HR MAX TEMP:  73; 6HR PCP:  1.38;

COFFEYVILLE    CLOUDY    70  64  81 SW14      30.06F
6HR MIN TEMP:  67; 6HR MAX TEMP:  72; 6HR PCP:  0.92;

HUTCHINSON     MOSUNNY   84  67  56 SE28G36   30.01F
6HR MIN TEMP:  70; 6HR MAX TEMP:  86;

MEDICINE LODGE   N/A     96  61  31 S13G21    29.98F HX  96
NEWTON         MOSUNNY   82  63  51 S25G33    30.07F
WICHITA INTL   PTSUNNY   82  65  56 SE28G35   30.05F
6HR MIN TEMP:  70; 6HR MAX TEMP:  82;

WICHITA JABRA  MOSUNNY   82  64  54 S23G43    30.05F
6HR MIN TEMP:  70; 6HR MAX TEMP:  82;

WICHITA MCCONL MOSUNNY   82  60  46 SE28G35   30.05F
WINFIELD       SUNNY     83  60  45 SE25G33   30.09F
                                      6HR PCP:  0.18;

$$

KSZ007>012-019>026-033>040-048>060-102>105-271900-
NORTHEAST KANSAS

CITY           SKY/WX    TMP DP  RH WIND       PRES   REMARKS
CONCORDIA        N/A     85  69  58 MISG      29.95F
6HR MIN TEMP:  70; 6HR MAX TEMP:  85;

EMPORIA        SUNNY     83  64  52 S17G29    30.05F
6HR MIN TEMP:  65; 6HR MAX TEMP:  83;

LAWRENCE       PTSUNNY   79  67  66 SE10      30.06S
6HR MIN TEMP:  64; 6HR MAX TEMP:  80;

MANHATTAN      PTSUNNY   87  66  49 S20G28    30.00F
6HR MIN TEMP:  69; 6HR MAX TEMP:  87;

OLATHE IND     PTSUNNY   75  68  78 S7        30.10R
6HR MIN TEMP:  64; 6HR MAX TEMP:  77; 6HR PCP: TRACE;

OLATHE EXE     CLOUDY    73  68  84 CALM      30.09R
6HR MIN TEMP:  62; 6HR MAX TEMP:  73; 6HR PCP:  1.64;

SALINA         MOSUNNY   86  68  54 S22G33    29.97S
6HR MIN TEMP:  72; 6HR MAX TEMP:  86;

TOPEKA BILLARD CLOUDY    78  68  71 SE10      30.05F
6HR MIN TEMP:  67; 6HR MAX TEMP:  78; 6HR PCP:  0.02;

TOPEKA FORBES  CLOUDY    79  67  66 S9        30.05F
6HR MIN TEMP:  67; 6HR MAX TEMP:  79; 6HR PCP:  0.04;

$$



USA.gov is the U.S. government's official web portal to all federal, state and local government web resources and services.